Regional Weather Roundup
Issued by NWS Wakefield, VA

Home | Current Version | Previous Version | Text Only | Print | Product List | Glossary Off
Versions: 1 2 3 4 5 6 7 8 9 10 11 12 13 14 15 16 17 18 19 20 21 22 23 24 25 26 27 28 29 30 31 32 33 34 35 36 37 38 39 40 41 42 43 44 45 46 47 48 49 50

000
ASUS41 KAKQ 020815
RWRAKQ

REGIONAL WEATHER ROUNDUP
NATIONAL WEATHER SERVICE WAKEFIELD VA
400 AM EDT TUE JUN 02 2015

Note: "fair" indicates few or no clouds below 12,000 feet with no
significant weather and/or obstructions to visibility. * = Denotes
station may not report precipitation (e.g., rain,snow,etc.),
thunder or fog.

VAZ042-051-052>054-056-020900-
NORTHERN VIRGINIA

CITY           SKY/WX    TMP DP  RH WIND       PRES   REMARKS
WASH NATIONAL  CLOUDY    71  67  87 S7        29.99R
DULLES         DRIZZLE   69  67  93 CALM      29.99R
FORT BELVOIR   CLOUDY    68  66  94 VRB2      29.98S FOG
QUANTICO       CLOUDY    69  66  90 SW8       29.99S
FREDERICKSBRG* CLOUDY    70  70 100 CALM      29.98F
STAFFORD*      CLOUDY    67  66  97 S3        30.03S
WARRENTON      CLOUDY    68  68 100 SW5       29.99F FOG
CULPEPER*      CLOUDY    67  66  98 CALM      30.01S
MANASSAS*      CLOUDY   N/A N/A N/A MISG        N/A
LEESBURG*      RAIN      64  64 100 N10       30.01R
WINCHESTER     CLOUDY    61  61 100 NW6       30.03R FOG
FRONT ROYAL*   CLOUDY    61  59  94 CALM      30.02S
LURAY*         CLOUDY    63  63 100 NE7       30.02S FOG
$$

VAZ048-049-060>072-079>083-020900-
CENTRAL AND SOUTH CENTRAL VIRGINIA

CITY           SKY/WX    TMP DP  RH WIND       PRES   REMARKS
RICHMOND       MOCLDY    69  67  93 CALM      29.99F FOG
CHESTERFIELD*  NOT AVBL
PETERSBURG*    MOCLDY    68  68 100 CALM      29.99F
HANOVER        CLOUDY    67  67 100 CALM      30.01S FOG
TAPPAHANNOCK*  MOCLDY    67  64  89 CALM      30.00F
QUINTON*         N/A     66  66 100 CALM      29.99F VSB 3/4
CHARLOTTSVILLE CLOUDY    66  65  96 CALM      30.01S
GORDONSVILLE*  CLOUDY    64  64 100 CALM      30.00F
ORANGE*        CLOUDY    66  64  94 CALM      30.02F
LOUISA*        CLOUDY    66  66 100 CALM      29.99F
BUMPASS*       CLOUDY    66  66  98 MISG      29.99F
FARMVILLE*     CLOUDY    68  68 100 CALM      29.98F
CREWE*         PTSUNNY   67  65  95 CALM      29.99F
FORT PICKETT*  FAIR      66  66 100 CALM      29.99F
CHASE CITY*    PTSUNNY   69  69 100 CALM      29.99S
CLARKSVILLE*   CLOUDY    68  68 100 CALM      29.98F
SOUTH HILL*    CLOUDY    66  66 100 CALM      30.04F
LAWRENCEVILLE* FAIR      68  68 100 CALM      29.98F
EMPORIA*       MOCLDY    64  64 100 CALM      30.00F FOG
$$

VAZ088>098-020900-
SOUTHEAST VIRGINIA

CITY           SKY/WX    TMP DP  RH WIND       PRES   REMARKS
NORFOLK        MOCLDY    73  67  81 S7        30.00F
VIRGINIA BEACH CLOUDY    72  66  81 SE7       30.00F
NORFOLK NAVAL  MOCLDY    76  68  76 S5        30.01F
WEST POINT*    MOCLDY    69  66  91 E5        30.01F
SALUDA*        FAIR      68  67  95 SE3       30.00S
NEWPORT NEWS   MOCLDY    73  67  81 NE3       30.00F
LANGLEY AFB    MOCLDY    72  68  88 SE6       29.99F
FORT EUSTIS    MOCLDY    70 N/A N/A SE3       29.98F
WILLIAMSBURG*  MOCLDY    72  72 100 E6        30.00F
HR EXEC AP*    PTSUNNY   72  66  83 SE6       30.02F
FRANKLIN*      PTCLDY    68  66  93 SE3       30.00F
WAKEFIELD      PTCLDY    69  67  93 CALM      29.99F
$$

VAZ020-022-025-037-045-020900-
WEST CENTRAL AND SOUTHWEST VIRGINIA

CITY           SKY/WX    TMP DP  RH WIND       PRES   REMARKS
STAUNTON*      DRIZZLE   67  65  94 NE3       30.04S
WAYNESBORO*    CLOUDY    64  63  99 SE5       30.03S
HOT SPRINGS VA CLOUDY    59  59 100 SW7       30.08F FOG
LYNCHBURG      CLOUDY    63  63 100 CALM      30.02F
DANVILLE       PTCLDY    67  65  93 W3        30.00S
SOUTH BOSTON*  FAIR      67  65  95 CALM      29.99S
MARTINSVILLE   CLOUDY    64  64 100 CALM      30.03S
ROANOKE        CLOUDY    66  64  93 N5        30.03F
BLACKSBURG     CLOUDY    62  60  96 CALM      30.07F
DUBLIN*        CLOUDY    63  63  99 CALM      30.06S
MARION*        FOG       60  59  96 CALM      30.09S VSB 1/2
HILLSVILLE*    NOT AVBL
RICHLANDS*     FOG       61  61 100 CALM      30.06F VSB 1
WISE*          FOG       59  59 100 N3        30.09S VSB<1/4
ABINGDON*      CLOUDY    63  63 100 CALM      30.05S
$$

MDZ021>025-VAZ099-100-020900-
SOUTHERN MARYLAND AND THE DELMARVA PENINSULA

CITY           SKY/WX    TMP DP  RH WIND       PRES   REMARKS
PATUXENT RIVER CLOUDY    68  66  93 S6        29.99F
BAY BRIDGE APT LGT RAIN N/A N/A N/A E5        29.98F
LEONARDTOWN    CLOUDY    66  64  94 CALM      30.00F
DOVER          CLOUDY    68  68 100 NW10      29.96S
GEORGETOWN     CLOUDY    67  66  97 SE5       30.00R
EASTON         LGT RAIN  69  69 100 CALM      30.02F
CAMBRIDGE      CLOUDY    70  66  88 CALM      29.98F
SALISBURY      CLOUDY    67  66  97 CALM      30.00S
OCEAN CITY     MOCLDY    65  64  97 S5        30.01S
WALLOPS ISLAND CLOUDY    68  68 100 MISG      30.01F
ACCOMACK*      MOCLDY    68  68 100 SE3       30.00F
$$

NCZ012>017-030>032-020900-
NORTH CENTRAL AND EASTERN NORTH CAROLINA

CITY           SKY/WX    TMP DP  RH WIND       PRES   REMARKS
ROANOKE RAPIDS FAIR      66  66 100 CALM      30.00F
RALEIGH        MOCLDY    69  67  93 CALM      30.00F
ELIZABETH CITY PTCLDY    73  69  87 S5        30.02S
AHOSKIE*       MOCLDY    69  66  90 CALM      30.00F
EDENTON*       MOCLDY    73  69  86 S8        30.02S
CURRITUCK*     PTCLDY    73  67  83 CALM      30.02F
KILL DEVIL HLS PTCLDY    74  69  84 SW6       30.01F
MANTEO         PTCLDY    74  69  84 SW12      30.03F
CAPE HATTERAS  CLEAR     74  68  81 W7        30.04S
TARBORO*       FAIR      70  67  90 S3        30.02S
GOLDSBORO      MOCLDY    72  69  92 CALM      29.99S
WASHINGTON     MOCLDY    71  68  89 S3        30.02S
GREENVILLE     PTCLDY    72  70  94 S3        30.03S
NEW BERN       PTCLDY    69  67  93 CALM      30.03F
WILMINGTON     PTCLDY    72  69  90 CALM      30.02S
$$

VAZ048-020900-
ELSEWHERE

CITY           SKY/WX    TMP DP  RH WIND       PRES   REMARKS
HARRISBURG PA  CLOUDY    57  54  89 NE8       30.05F FOG
BALTIMORE      LGT RAIN  63  62  97 NE9       29.98F
ANNAPOLIS      LGT RAIN  68  32  26 NE9       29.98S
ANDREWS AFB    CLOUDY    68  68 100 SE2       29.98S
PHILADELPHIA   CLOUDY    56  53  90 NE16      30.05F
HENDERSON NC   PTCLDY    68  65  90 S5        29.99S
GREENSBORO     CLOUDY    67  65  93 CALM      30.00F
ROCKY MOUNT    MOCLDY    69  68  96 CALM      30.00F FOG
$$

VAZ100-020900-
MARINE

STATION/POSITION TIME  TEMP    WIND        PRES    WAVE   SWELL
                       AIR SEA DIR/SP/G            HT/PER HT/PER
                 (UTC) (F)     (DEG/KT/KT) (MB)    (FT/S) (FT/S)
BRANDYWINE LGT   0700   66 67   80/  7/  8 1016.3
CAPE MAY NJ      0700   63 69   80/  4/  6 1016.2
LEWES DE         0700   64 61   70/ 11/ 12 1015.3
15NM E FENWICK I 0750   67 66              1015.7F   4/ 6
OCEAN-CITY-INLET 0700   65 60  170/  3/  3 1015.7
WACHAPREAGUE VA  0700   69 79  100/  4/  5 1016.5
THOMAS POINT MD  0800   69 74  110/  6/  7 1015.7F
GOOSES REEF MD   0800   70 72  180/ 10/ 12 1016.0F   2/ 3
COVE POINT MD    0700   69     170/  6/  7 1016.4
SOLOMONS ISLAND  0700      74                N/A
BISHOPS HEAD MD  0700   71 77  130/  6/  7 1015.4
PINEY POINT MD   0700          160/  8/  9   N/A
CAMBRIDGE MD     0700   68 76  130/  1/  2 1015.5
LEWISETTA VA     0700   69 74              1015.4
RAPPAHANNOCK LGT 0700          100/  9/ 11 1016.7F
STINGRAY PT      0800   71 74  150/  8/ 10 1015.7F   1
YORK RVR RNG VA  0700   72     130/  7/  8 1015.4
YORKTOWN VA      0700   71 74  150/  3/  4 1015.7
JAMESTOWN VA     0800   73 80  110/  8/ 10   N/A
DOMINION TERM VA 0700   73     110/  7/  8 1016.2
KIPTOPEKE VA     0700      75  100/  9/ 11   N/A
CHES BAY BRIDGE  0700   69 70  100/  7/  9 1015.9
CAPE HENRY VA    0700   69     140/  5/  7 1015.2
CHESAPEAKE LGHT  0700   70      80/ 10/ 10 1017.3F
WILLOUBY STN VA  0700   72     130/  7/  8 1016.8
CAPE HENRY BUOY  0728      65                N/A     3/ 8
1ST LANDING BUOY 0800      68              1015.8F
CAPE CHARLES BUO 0726      68                N/A     2/ 8   2/ 8
OFFSHORE WE BUOY 0711      68                N/A     3/ 9   3/ 9
64NM E OF VA BCH 0750   73 72  190/  4/  4 1016.6F   3/ 8   3/ 8
DUCK PIER NC     0700   75 55  200/ 10/ 14 1015.6
44100 DUCK FRF   0724      72                N/A     3/ 8
44056 DUCK FRF   0711      60                N/A     2/ 8
OREGON INLET NC  0700   77 77  200/ 11/ 13 1017.0
HATTERAS NC      0700   75 80  230/  5/  8 1016.8
DIAMOND SHLS NC  0750   78 81  210/ 12/ 12 1017.2S   3/ 9   3/ 9
CAPE LOOKOUT NC  0800   76     190/  8/  9 1016.6F
$$


USA.gov is the U.S. government's official web portal to all federal, state and local government web resources and services.